Powrót do katalogu

STARLINK-34072

AktywnyŁącznośćVLEO
NORAD 64101·PAYLOAD·🇺🇸 United States

Wystrzelony May 23, 2025 z Vandenberg Space Force Base

Loading…

Następne Przeloty (najbliższe 24 godziny)

TLE

ŚwieżeSource: CelesTrak SupGP

Epoka: Sep 14, 2026, 22:24 UTC

1 64101C 25110F   26257.93381944  .00021094  00000+0  67819-3 0  2570
2 64101  53.1586 226.4047 0001455  89.0814 338.9453 15.31697994    12

Śledź STARLINK-34072 w czasie rzeczywistym z AllMySat

Download on the App Store